Theta_e
319 319 320 319 318 318 318 318 318 318 319 318 319 319 319 319 319 319 319 319 320 320 319 320 320 320 320 320 321 322 320 317 315 314 315 313 326 330 344 342 343 342 349 335 322 324 325 324 321 325 325 327 328 328 343 344 343 340 325 322 316 323 322 331 328 329 332 328 332 334 336 335 331 335 339 345 339 339 338 334 337 339 339 341 342 344 347 348
319 319 319 318 318 318 318 318 318 318 319 318 318 319 319 319 319 319 319 319 319 319 319 319 319 320 320 321 321 322 319 316 313 314 314 326 336 337 341 344 349 344 344 321 315 319 320 321 324 329 328 326 334 331 344 338 344 331 327 323 317 327 329 334 334 333 331 330 334 335 340 339 333 336 338 332 332 333 331 331 334 333 337 340 342 344 346 346
319 319 318 318 318 318 318 318 318 318 318 318 318 318 319 319 319 319 319 319 319 319 319 319 319 319 320 321 322 322 317 315 314 312 317 339 338 344 345 350 350 347 334 316 316 323 322 325 328 330 331 329 332 333 339 335 340 338 329 319 322 329 331 333 338 338 341 336 333 334 336 338 335 337 339 331 330 334 327 328 330 331 332 335 339 343 344 345
319 319 318 318 318 318 318 318 318 318 318 318 318 318 318 318 319 319 319 319 319 318 319 318 319 320 320 322 322 320 317 313 312 318 323 358 345 342 346 348 350 346 330 317 319 326 329 328 328 331 330 328 327 337 332 340 335 336 331 323 326 332 328 334 340 338 337 338 334 334 337 335 334 336 338 332 330 331 329 332 330 330 333 335 339 342 343 342
318 318 318 318 318 318 318 318 318 318 318 318 318 318 318 318 318 318 318 318 318 318 318 319 320 320 321 322 321 319 313 307 315 325 333 353 351 343 345 349 353 339 322 318 324 321 325 328 327 327 328 319 321 332 331 338 338 332 328 332 331 332 329 337 339 339 337 339 336 333 333 332 340 338 336 336 326 324 329 333 334 334 336 337 339 341 342 340
318 318 318 318 318 318 318 318 318 318 318 317 317 318 318 318 318 318 318 318 318 318 318 319 320 321 322 322 318 316 309 300 317 319 355 353 352 346 346 350 355 328 318 315 315 317 317 318 320 319 319 315 313 324 332 335 338 325 331 332 332 332 332 339 336 338 341 337 336 333 336 338 337 333 336 336 334 339 340 336 336 336 338 340 341 340 338 338
318 318 317 317 317 317 318 318 317 317 317 317 317 317 318 317 317 317 317 317 317 317 319 320 321 321 321 321 316 315 308 309 313 322 347 353 351 346 348 352 353 318 315 312 312 313 315 316 320 320 318 313 312 313 331 333 335 330 324 330 332 333 333 337 337 339 338 337 334 340 340 335 333 327 336 332 335 340 344 337 337 338 339 339 337 338 337 337
318 317 317 317 317 317 317 317 317 317 317 317 317 317 317 317 317 317 317 317 317 318 319 320 321 321 322 317 313 308 307 310 316 344 350 351 347 346 347 337 329 314 312 310 311 312 316 316 318 322 316 310 313 314 331 332 331 328 327 330 331 333 336 335 336 337 338 338 342 339 335 334 335 332 337 333 338 340 337 337 337 337 337 337 336 336 336 337
317 317 317 317 317 317 317 317 317 318 317 317 317 317 317 317 317 317 317 317 318 318 319 320 321 322 321 315 307 303 304 315 324 342 341 337 337 336 327 323 324 316 312 311 313 314 317 318 321 322 309 312 316 314 333 329 323 331 331 330 331 331 336 336 336 335 337 340 340 336 333 334 336 339 334 337 339 340 338 336 336 336 335 334 334 335 336 336
317 317 317 317 317 318 318 317 317 317 317 317 317 317 317 317 316 317 317 318 318 319 319 321 322 322 317 314 310 298 308 329 336 341 332 329 332 325 320 320 320 316 311 311 311 313 316 320 322 321 317 314 314 310 333 328 323 332 331 330 329 330 335 338 335 334 336 337 339 333 331 333 336 338 326 338 339 342 339 334 335 334 333 334 334 335 335 336
317 317 317 317 317 317 317 317 317 317 317 317 317 316 316 316 316 317 317 318 318 319 320 322 322 319 312 314 303 296 316 324 329 332 330 328 326 320 318 319 318 313 312 311 311 314 317 320 324 327 320 309 311 310 328 323 326 331 332 330 329 334 335 337 335 334 337 333 337 336 332 336 339 336 327 335 340 339 335 333 333 333 333 334 334 334 335 336
318 318 318 318 317 317 317 317 317 317 317 317 316 316 316 316 316 317 317 318 318 320 321 323 324 319 315 312 304 303 320 323 325 326 328 326 322 321 320 318 316 313 313 313 314 317 319 322 326 325 308 313 305 311 310 313 315 331 330 323 327 331 330 334 333 334 336 333 338 339 329 328 333 327 333 336 339 338 332 332 332 332 333 333 334 334 333 334
317 318 317 317 317 317 317 317 317 317 317 316 315 315 316 316 316 316 317 317 319 321 322 324 322 318 315 304 309 316 317 318 322 325 321 320 317 317 316 316 315 314 315 318 320 324 326 328 328 319 315 312 308 305 311 314 313 332 328 325 324 325 325 332 333 333 334 336 338 337 314 319 326 334 338 337 338 337 331 331 332 332 333 333 333 333 333 334
318 317 317 317 317 317 317 317 317 317 316 315 315 314 315 315 315 316 317 318 320 322 325 325 321 316 313 305 314 320 321 317 319 319 315 316 312 312 314 313 314 314 316 318 320 321 320 321 318 314 315 310 307 315 311 311 314 318 326 326 318 317 318 330 331 332 330 336 336 332 313 318 328 332 338 338 338 333 329 330 331 331 332 332 332 332 331 332
318 317 317 317 317 317 317 316 316 315 315 315 314 314 313 313 315 317 319 320 322 325 326 324 319 315 307 308 317 320 340 319 315 316 316 313 311 312 312 312 310 313 315 317 317 320 321 318 314 311 306 315 313 310 305 305 307 313 318 310 317 315 317 326 334 331 325 331 334 330 316 319 326 331 337 337 338 334 329 329 330 331 331 331 331 331 330 330
317 317 317 317 317 317 317 316 315 315 315 314 313 313 314 314 316 318 320 321 323 324 323 316 313 315 305 298 306 328 321 321 315 318 316 316 313 311 314 312 312 313 315 314 318 319 319 317 310 308 310 312 308 303 301 300 300 308 305 307 311 315 317 320 328 332 332 330 332 327 317 322 325 332 336 336 335 333 329 328 329 330 330 330 330 329 329 328
317 317 317 317 317 317 317 315 315 315 314 314 313 314 314 316 319 321 322 323 322 325 319 313 315 315 300 309 320 314 314 316 318 320 317 316 315 315 314 313 310 311 313 314 317 317 314 314 312 311 310 303 303 303 298 296 296 299 305 303 315 314 316 314 325 330 332 330 323 328 322 322 326 332 336 340 339 332 330 327 328 328 329 329 329 328 327 326
316 316 317 317 317 317 316 315 315 315 313 313 312 312 311 316 319 317 319 322 320 321 317 319 315 308 305 314 307 309 318 316 315 317 319 321 320 318 316 315 314 312 313 312 315 311 311 306 307 300 301 304 303 298 295 295 298 300 302 306 312 316 318 316 317 324 331 331 325 325 325 325 326 330 334 335 339 336 331 327 326 327 327 327 327 327 326 325
317 317 316 316 316 316 316 315 314 313 313 312 313 316 317 317 317 312 315 313 311 304 301 305 305 298 294 304 312 312 316 317 317 316 314 318 318 316 316 315 313 309 307 306 303 310 307 302 304 300 296 297 299 300 298 301 306 305 307 310 313 311 312 315 321 327 329 326 323 324 321 323 325 328 331 335 338 332 334 334 329 326 326 326 326 326 326 324
317 317 316 316 315 315 315 315 313 312 311 309 308 312 316 311 309 309 314 314 308 307 307 309 309 311 309 308 307 314 317 317 311 314 315 317 317 313 312 312 310 308 304 301 302 305 306 298 294 295 296 299 301 302 303 304 304 305 306 310 314 313 315 320 323 327 331 324 322 324 325 324 325 328 329 332 333 332 332 329 329 330 328 329 326 325 325 324
316 316 316 315 315 315 315 314 312 311 310 308 307 309 307 308 300 298 306 309 312 312 308 308 311 309 308 311 313 312 308 309 314 313 315 318 316 312 308 308 303 300 300 303 303 306 305 297 296 298 301 301 301 302 303 303 304 303 303 307 312 314 312 320 322 327 330 323 321 325 324 324 326 328 329 332 329 328 330 329 328 331 334 331 328 324 324 325
316 316 315 315 314 314 314 313 311 310 309 308 310 308 308 310 312 311 306 299 306 313 313 312 313 311 315 315 317 316 313 307 310 312 316 316 313 308 307 305 301 297 300 302 302 300 297 295 299 301 303 303 302 302 302 302 302 304 301 300 308 312 317 322 324 327 327 322 318 325 322 323 327 328 331 331 332 333 334 331 330 332 333 332 329 330 325 325
316 316 315 315 314 313 312 312 310 309 309 309 312 310 308 311 314 314 310 303 301 308 309 311 311 312 313 318 317 316 308 305 304 310 311 313 310 310 306 302 300 300 301 301 296 295 294 296 301 304 303 302 301 301 301 301 302 300 299 298 298 313 315 311 319 324 324 321 318 323 321 320 324 328 328 332 333 332 336 336 336 334 333 332 331 332 329 324
316 316 315 314 314 312 312 310 309 308 307 310 311 309 314 315 315 310 306 298 298 304 307 308 310 311 311 309 313 311 308 308 307 307 317 311 307 309 306 303 301 300 297 300 298 295 295 300 304 304 303 302 300 301 300 297 295 300 301 299 309 315 316 315 315 320 321 322 325 321 316 318 320 321 323 331 334 333 336 334 334 335 338 339 340 338 336 327
316 316 316 315 313 312 310 308 307 311 313 308 309 313 315 315 314 310 303 298 298 300 309 309 311 311 312 314 314 309 309 309 308 311 315 311 308 307 305 308 303 298 300 301 300 297 297 303 304 302 302 301 300 299 299 299 295 297 302 302 312 317 316 316 317 315 311 313 318 319 307 310 317 320 323 326 329 329 334 330 330 333 335 337 336 335 339 341
315 315 315 314 313 311 309 310 313 313 312 312 313 317 317 316 314 311 301 293 289 297 306 300 309 304 310 307 312 309 309 302 308 310 315 312 317 308 308 303 305 297 301 300 298 296 298 304 303 301 301 300 300 299 301 301 296 297 300 306 315 317 316 315 315 313 306 307 315 321 307 305 316 316 321 324 325 328 332 330 332 333 334 334 335 335 336 339
315 315 314 313 313 309 307 308 313 313 309 311 313 313 311 314 315 309 300 290 288 300 297 303 304 302 307 307 308 307 292 294 307 313 313 319 310 314 303 297 303 306 306 305 300 295 302 301 301 302 301 299 298 296 301 301 297 297 305 308 310 314 313 315 315 313 310 316 319 320 317 307 306 312 323 324 324 326 327 329 333 334 334 333 333 336 337 338
315 314 312 311 310 309 309 309 310 310 312 314 317 317 315 315 312 306 297 285 285 302 298 299 304 309 306 306 307 301 300 304 299 307 314 314 312 308 305 300 300 299 302 302 290 299 301 300 299 299 300 297 296 298 302 302 300 301 308 312 308 310 311 316 314 310 310 309 306 313 318 305 304 312 324 324 320 322 324 327 329 333 334 333 333 335 337 339
314 313 312 311 310 308 310 308 311 309 315 317 317 318 318 312 306 298 290 283 297 301 309 299 309 307 304 307 302 303 302 305 298 307 312 312 311 306 299 302 302 300 300 299 293 297 303 302 302 301 299 297 301 302 303 303 300 308 311 313 312 312 312 315 312 307 309 306 302 308 313 303 303 314 319 323 320 320 323 327 329 332 333 333 333 334 337 340
313 312 312 311 308 308 308 308 308 315 317 317 317 317 315 308 300 294 289 282 300 291 302 301 299 298 302 298 299 303 300 302 307 307 308 304 306 306 305 306 302 299 297 300 298 299 302 310 313 305 300 302 302 303 303 304 307 310 311 308 304 304 310 308 306 308 306 301 304 311 313 310 300 312 317 316 317 321 324 327 330 332 333 334 335 335 337 340
311 311 310 309 306 314 312 306 311 315 317 317 317 313 309 303 296 288 284 289 300 296 302 299 297 302 298 296 292 300 301 301 303 304 300 305 300 304 302 298 304 297 293 294 295 299 301 303 304 305 310 306 305 304 306 306 309 308 304 301 301 301 301 305 301 306 298 296 305 311 311 312 301 307 316 322 323 325 325 326 328 329 331 332 334 335 338 339
309 308 310 307 310 314 307 306 311 314 315 316 317 308 302 291 293 284 288 301 290 294 294 293 298 297 296 298 297 296 295 299 300 300 296 296 296 296 296 292 295 293 288 290 292 297 297 298 301 306 318 308 305 304 300 303 303 305 301 301 294 290 294 293 298 295 294 294 304 311 311 306 303 310 318 322 321 325 327 328 329 331 331 332 334 336 336 338
308 308 308 309 311 308 311 313 313 314 315 317 311 305 296 288 285 290 290 293 289 295 293 300 296 297 297 296 294 297 299 294 298 299 299 299 295 296 297 297 296 293 289 293 292 292 291 299 302 304 306 311 306 299 298 299 298 301 299 296 293 291 289 286 290 292 293 303 310 311 313 303 309 311 319 321 322 327 328 328 331 333 332 334 335 335 335 338
308 308 307 311 310 313 315 318 317 317 315 316 308 301 296 286 288 309 295 292 294 300 299 297 298 298 296 291 294 297 292 298 298 297 299 296 293 293 295 297 297 298 296 291 290 290 290 291 295 303 298 308 305 300 298 299 301 298 301 300 295 292 290 287 289 289 291 296 306 312 305 301 303 305 321 322 324 327 328 330 331 332 335 337 338 336 337 337
308 308 309 312 313 314 314 316 316 319 315 309 301 294 288 286 292 291 290 292 295 299 296 300 295 294 294 295 297 298 295 292 299 297 295 294 290 292 292 293 297 297 296 289 293 296 294 291 297 306 304 306 305 307 307 303 301 301 303 303 297 297 297 291 293 291 295 299 300 303 304 309 309 317 322 324 324 324 328 329 332 332 334 336 336 336 335 336
308 313 315 313 315 318 317 318 317 316 310 304 297 291 290 292 290 294 293 299 298 295 295 297 294 290 291 290 296 297 299 294 296 295 294 294 294 294 296 298 296 298 293 290 295 291 292 290 300 303 308 306 305 308 308 306 295 298 302 298 299 302 302 296 299 299 302 301 296 306 305 310 317 316 319 322 321 323 325 323 326 330 334 334 334 335 337 340
313 315 309 312 314 318 320 320 321 316 309 303 295 291 294 296 298 297 305 297 297 297 294 289 290 289 289 287 290 294 295 296 294 293 290 295 291 296 297 299 301 300 300 295 296 298 292 291 298 301 302 306 306 306 306 307 304 303 298 298 303 306 303 296 291 290 290 293 296 305 302 303 304 301 318 319 319 320 322 322 324 326 329 330 330 333 334 337
311 314 318 315 316 316 321 321 320 313 306 301 295 306 303 297 300 299 300 298 299 298 293 291 291 294 290 289 290 293 295 293 293 294 291 294 291 300 297 296 301 300 300 300 294 297 296 287 292 299 302 303 305 304 303 304 308 299 298 304 299 294 295 296 294 289 290 293 297 302 304 303 304 304 313 314 317 320 322 324 326 326 327 328 331 332 334 336
311 312 308 314 317 319 316 322 316 307 302 297 295 295 305 300 302 300 301 301 301 297 291 294 292 294 293 289 292 294 294 289 294 293 293 294 291 298 298 299 299 300 301 301 296 297 296 288 290 296 299 301 299 297 293 296 300 304 302 298 302 297 295 294 293 293 299 293 296 298 302 298 309 309 316 317 319 321 322 323 323 325 326 327 327 329 333 333
310 306 304 315 316 316 320 320 309 302 299 294 294 297 300 298 300 302 301 300 298 295 296 294 295 291 293 294 294 291 296 296 293 294 294 296 295 302 298 302 298 299 300 302 299 300 295 295 288 294 300 301 294 294 292 294 294 298 302 293 297 298 299 298 297 297 297 295 297 296 294 300 310 315 317 318 320 320 320 320 321 322 324 325 327 330 333 334
312 304 305 316 313 317 317 310 302 299 297 296 299 299 300 299 301 301 303 302 300 303 297 297 294 292 294 293 294 295 294 295 295 292 295 294 296 291 299 299 300 299 299 299 298 298 293 295 290 291 292 293 292 296 299 299 296 293 293 293 294 295 294 292 288 299 304 299 293 296 291 300 311 319 320 320 322 322 322 321 321 322 323 324 326 328 329 331
307 303 306 316 315 312 306 299 299 300 298 296 295 299 299 310 300 300 302 302 301 299 303 300 298 297 295 296 296 295 295 294 294 293 296 293 298 295 298 300 300 301 296 293 294 301 299 299 296 292 293 293 296 299 303 303 302 299 298 295 297 294 294 291 287 290 302 302 305 301 296 297 314 319 320 322 324 324 324 322 320 321 323 324 325 327 328 329
307 305 316 319 321 310 302 297 307 303 298 298 304 303 302 302 300 301 300 301 299 301 300 299 300 298 299 297 297 296 296 293 295 293 295 296 296 299 299 300 301 301 296 293 298 298 312 295 292 292 294 298 298 300 302 303 303 300 297 297 297 294 295 294 293 298 300 301 298 296 295 301 316 320 321 321 323 323 324 323 321 321 322 323 324 324 325 326
307 307 311 318 313 309 300 294 295 298 298 301 301 300 302 301 300 299 298 300 299 298 298 300 299 301 301 300 298 297 298 290 296 295 293 297 294 300 298 299 301 298 298 294 295 302 294 296 292 287 284 288 291 295 295 299 297 296 295 296 299 300 305 303 303 303 300 302 301 297 293 302 313 319 321 322 322 323 323 323 321 319 321 323 323 323 324 325
308 311 311 313 314 303 298 297 297 296 299 301 300 297 299 299 301 301 299 298 301 299 299 298 300 300 299 301 299 299 300 296 293 298 297 298 298 303 298 298 301 299 303 305 315 313 297 300 295 286 283 281 282 283 286 289 290 294 297 296 299 302 300 299 299 300 292 301 302 298 298 306 313 316 317 320 321 319 321 320 321 321 321 321 322 323 323 324
306 299 306 303 304 302 303 303 299 298 297 298 297 298 299 297 300 301 301 300 300 300 299 300 301 301 299 299 298 298 299 301 297 297 295 295 297 299 300 299 301 300 312 323 319 305 298 302 299 294 288 285 287 290 295 303 294 291 294 296 298 300 302 302 300 298 295 299 299 301 304 305 308 311 313 315 319 318 318 319 319 319 320 321 321 322 323 323
312 303 301 297 304 300 298 297 298 298 295 299 292 297 296 296 299 300 303 297 301 299 300 300 300 298 299 298 298 299 301 300 302 299 298 297 298 298 301 300 300 311 324 317 314 301 296 291 297 298 296 296 296 297 296 300 294 294 294 295 297 298 300 301 300 298 303 301 292 302 307 305 306 310 312 314 317 317 318 318 318 318 319 320 321 323 325 322
297 301 306 310 298 292 292 294 297 297 302 300 296 300 297 296 296 295 300 302 302 302 298 300 301 300 299 300 301 297 300 302 299 297 300 300 299 300 296 299 297 308 307 301 306 299 294 292 297 297 294 295 296 297 297 296 295 295 295 295 295 295 297 302 304 306 304 299 297 303 307 306 308 311 313 315 316 316 317 318 319 319 320 321 320 320 320 320
309 309 307 314 303 305 302 300 305 300 301 304 299 299 295 295 294 297 297 297 301 299 300 294 297 302 302 304 300 297 297 293 295 303 300 299 299 297 295 298 301 301 300 298 299 301 294 292 300 298 295 296 296 297 297 295 295 294 295 295 295 297 298 301 307 307 305 302 306 306 305 307 310 311 314 315 317 318 318 319 319 319 319 319 318 318 319 319
302 304 304 312 311 306 305 302 302 301 296 304 294 297 299 295 294 297 298 296 295 296 300 296 299 300 302 301 300 296 299 300 300 297 300 298 296 297 298 300 296 299 301 297 299 298 293 293 302 296 293 294 297 299 297 295 295 292 294 295 295 297 307 308 308 308 308 306 307 306 305 304 312 313 313 315 317 318 318 317 316 316 317 317 316 316 317 317
309 312 313 307 303 306 308 302 300 297 293 295 292 299 302 299 299 302 299 300 295 296 298 296 301 300 300 300 299 298 301 300 299 300 301 299 295 299 298 300 302 298 299 298 298 300 297 293 297 296 289 291 296 296 296 296 295 293 293 294 294 294 298 305 306 309 306 303 305 305 302 303 309 313 313 313 314 315 313 313 314 315 316 316 315 315 316 316
312 313 316 310 301 312 302 303 300 295 293 297 302 299 299 299 300 301 297 299 299 301 300 301 301 298 296 296 296 299 302 301 300 300 300 301 301 300 300 300 301 299 298 296 301 296 296 293 290 293 288 290 295 296 295 294 290 288 291 294 299 297 295 301 309 312 310 308 304 302 302 308 310 312 310 311 312 312 312 313 313 314 315 315 314 314 314 314
Wind_Speed
15 15 14 13 14 13 13 13 13 13 12 13 13 13 13 13 13 13 12 12 12 13 13 13 13 13 13 12 12 12 10 8 6 2 4 12 7 8 9 7 8 13 11 3 3 6 5 6 8 6 5 4 4 5 4 2 2 1 1 2 1 2 2 2 2 3 3 10 9 8 5 7 9 9 5 3 6 4 4 6 10 12 9 11 15 16 15 16
15 15 14 14 14 14 13 13 13 13 13 13 13 13 13 13 13 13 13 12 12 12 13 13 13 12 13 12 12 12 9 4 6 6 16 7 9 12 11 12 8 13 11 3 7 8 7 7 8 7 5 5 5 4 8 2 2 2 1 2 0 2 3 6 2 3 7 7 9 7 4 4 6 8 3 6 5 7 8 12 13 14 14 14 16 16 15 15
15 15 15 15 15 14 14 14 14 13 13 13 14 14 13 14 13 13 13 12 12 13 13 13 12 12 12 12 10 9 6 5 3 8 14 19 12 10 12 9 12 14 13 5 7 9 11 12 10 9 6 5 4 4 6 2 1 2 2 1 3 4 0 5 5 2 1 10 11 10 6 3 6 1 3 8 8 6 12 14 14 16 17 16 16 16 15 15
16 15 16 16 16 16 16 15 15 14 14 14 14 14 14 14 14 13 13 13 12 12 13 13 13 12 12 12 10 6 3 4 1 3 3 2 17 16 12 8 8 14 7 2 5 7 5 3 2 7 5 5 5 7 7 4 3 1 1 1 3 1 1 4 5 3 2 8 9 7 8 5 8 4 2 9 10 4 7 11 18 21 20 18 17 16 15 14
15 15 15 16 16 16 16 17 16 16 15 15 14 14 14 14 14 14 13 13 13 12 12 12 12 12 12 9 7 3 2 1 1 2 1 3 14 19 14 10 11 9 8 2 0 3 4 5 4 5 6 5 5 7 3 5 4 4 4 5 5 2 1 4 5 5 2 6 10 8 11 8 7 6 6 3 6 9 8 11 16 20 21 20 19 17 14 14
15 16 16 15 16 16 17 17 17 16 16 15 15 14 14 14 14 14 13 13 12 12 12 12 12 11 12 9 3 3 0 2 3 2 3 5 12 16 15 13 12 8 6 3 3 2 3 4 4 4 4 4 3 6 4 8 7 2 4 4 5 4 2 5 5 5 7 5 9 12 9 8 8 9 5 4 3 1 5 14 18 19 21 20 17 16 16 16
16 16 16 16 16 17 17 17 17 17 16 16 16 15 14 14 14 14 13 12 13 12 11 11 11 11 10 8 2 1 1 7 4 5 5 4 10 17 15 12 10 6 5 4 3 3 6 5 5 7 6 5 3 5 7 9 9 3 5 5 5 5 5 6 8 7 6 10 10 6 11 12 11 8 5 4 3 6 3 18 19 20 20 19 18 17 18 16
16 16 16 16 16 17 17 17 17 17 17 16 16 16 15 15 14 14 14 13 12 12 11 10 10 9 7 3 1 1 1 7 11 1 8 9 9 12 11 5 8 5 6 9 9 9 4 7 8 5 7 5 3 5 8 8 10 6 3 6 4 3 5 9 6 7 4 8 7 8 10 10 11 9 7 4 4 3 10 17 19 21 21 18 18 19 18 17
17 17 17 17 17 17 17 17 18 17 17 17 17 17 16 15 14 14 14 13 12 11 11 9 8 7 4 2 1 2 5 8 4 7 9 9 9 10 11 6 6 7 4 5 8 7 5 6 7 7 2 4 6 2 10 9 4 8 4 8 4 6 13 10 8 8 5 4 5 10 10 9 11 10 5 4 7 5 8 18 18 18 19 17 17 20 17 16
19 18 18 18 17 17 17 17 17 18 18 17 15 16 16 16 15 15 14 13 12 11 10 8 8 5 1 2 1 1 4 5 5 9 8 9 8 9 8 5 9 8 6 9 5 6 8 6 5 2 5 5 3 5 13 10 5 9 8 6 5 8 12 12 11 11 5 3 4 8 9 7 7 3 3 4 8 3 7 18 16 17 16 14 15 16 14 15
19 19 18 18 18 18 17 17 17 17 18 17 17 16 17 17 15 14 14 13 12 11 8 7 5 2 2 2 2 5 6 6 4 8 11 10 10 9 11 8 10 9 8 4 9 12 9 8 8 5 5 3 4 1 9 2 5 10 10 6 4 8 6 9 8 18 9 3 4 5 8 6 5 3 11 11 6 3 13 18 17 15 13 12 15 14 10 12
18 19 19 18 20 19 18 18 17 17 18 18 18 17 17 17 16 15 14 13 12 10 7 5 5 3 2 0 3 8 3 1 8 7 10 13 10 12 9 8 11 11 10 8 9 11 12 11 8 3 4 4 3 3 2 3 5 12 14 7 5 8 5 4 6 11 7 3 10 7 9 5 2 6 8 9 6 2 15 18 17 15 13 13 13 12 9 11
19 19 18 19 19 19 19 18 18 18 18 18 18 18 17 17 17 15 13 12 9 7 5 3 4 3 1 0 10 9 6 1 3 6 7 7 5 5 6 9 10 8 11 8 6 5 6 7 6 8 4 0 3 0 3 3 3 11 9 10 7 3 4 5 6 11 3 7 14 5 5 2 5 3 3 8 7 6 17 17 15 13 12 12 12 11 10 11
20 20 20 19 18 19 20 19 19 19 19 18 14 17 18 17 16 15 13 11 11 11 9 8 3 3 0 5 6 4 6 7 3 4 8 7 7 6 5 7 10 8 6 5 9 9 9 7 8 9 1 4 2 2 4 2 1 10 8 6 6 7 4 3 5 7 9 3 8 3 7 3 2 8 8 3 8 11 17 17 15 14 13 13 13 13 11 12
19 20 19 19 20 20 19 19 19 18 19 16 16 18 18 18 16 14 12 8 8 5 7 7 1 1 1 8 7 9 10 5 5 9 8 10 6 2 5 7 8 9 8 9 5 4 5 7 4 2 2 2 1 2 4 2 1 4 8 1 0 5 2 3 3 7 8 3 4 7 6 5 6 5 7 3 5 8 16 17 16 15 14 14 13 13 10 10
16 17 19 20 20 19 17 16 16 17 18 18 16 19 19 16 13 11 9 8 5 5 6 4 3 2 2 7 4 8 2 7 10 15 10 12 9 5 9 11 9 8 8 5 7 6 7 4 0 1 0 1 3 1 3 4 3 1 6 5 4 3 5 2 2 1 5 8 4 4 3 6 5 8 3 6 6 6 11 16 16 15 16 14 13 10 9 10
16 16 15 18 19 19 19 15 16 16 15 16 19 19 14 12 10 7 7 6 3 4 4 1 4 2 0 2 7 3 1 3 5 8 8 7 11 7 5 6 4 7 7 8 4 7 3 1 1 2 2 1 1 2 1 1 3 2 2 4 7 11 6 3 4 3 4 10 8 8 7 9 5 8 7 5 4 6 4 16 14 14 13 13 11 10 9 9
17 17 16 16 18 18 17 14 14 15 14 16 16 14 11 10 6 7 2 2 3 4 4 4 2 1 8 2 1 2 0 2 3 3 7 9 9 7 6 5 4 7 5 4 5 2 1 1 0 2 2 1 1 1 4 9 8 7 2 6 4 7 17 13 11 10 7 5 8 8 8 10 10 6 7 6 4 4 1 10 14 15 14 12 10 10 9 8
21 19 17 16 15 17 16 14 14 13 15 19 17 13 8 5 1 1 0 2 2 1 1 1 4 2 5 4 5 5 2 4 2 4 3 5 3 4 5 2 4 5 3 1 3 1 1 2 2 1 3 3 6 6 8 5 1 1 5 6 7 8 6 8 6 9 14 9 6 11 9 10 11 8 7 6 5 9 4 3 8 13 15 12 10 10 10 8
22 19 17 16 15 15 16 14 12 11 13 10 8 3 1 1 1 0 1 1 3 6 5 5 7 4 10 9 5 2 3 4 5 5 3 3 3 4 3 4 1 2 4 5 1 3 2 2 4 6 7 8 8 7 8 9 5 7 8 5 6 6 3 4 6 10 10 8 8 9 9 11 13 11 11 11 7 8 4 6 9 9 8 8 9 11 13 8
20 19 18 16 15 14 15 12 10 8 9 3 3 1 1 0 2 2 2 6 7 8 9 6 11 11 9 6 9 4 1 3 2 4 5 3 4 7 3 4 3 4 4 6 6 2 2 3 7 8 10 10 9 6 7 7 5 7 4 5 10 12 9 13 13 12 10 8 7 8 12 10 13 10 10 8 9 9 6 7 10 9 6 7 9 11 14 7
20 19 18 16 15 13 13 10 7 8 7 2 1 0 3 3 3 3 2 4 3 12 11 13 7 9 9 12 13 8 7 2 4 5 2 5 4 6 2 3 4 7 3 1 1 1 4 7 9 10 10 8 8 7 8 6 7 7 6 4 7 8 7 10 9 12 13 6 5 12 11 8 6 7 8 8 6 4 5 2 9 10 6 7 8 6 11 9
19 19 18 17 15 14 13 10 7 6 2 1 0 1 3 5 2 5 1 3 7 4 6 7 5 9 11 9 9 7 10 5 6 3 3 4 4 4 5 3 6 4 3 4 6 4 4 7 13 10 7 7 8 8 8 7 5 6 5 4 7 8 10 7 8 13 9 1 9 8 10 7 9 11 10 7 5 2 3 8 0 3 7 7 9 7 8 11
18 18 19 17 16 16 15 9 7 2 2 4 1 6 5 2 6 5 3 1 3 6 5 5 6 4 6 3 3 3 6 3 4 8 4 5 6 5 3 6 7 3 6 6 7 7 8 9 12 11 9 7 9 9 8 6 7 7 9 5 6 13 13 15 9 8 6 14 8 13 10 5 7 4 5 5 6 9 5 1 11 1 1 2 0 0 3 10
19 19 18 18 18 18 16 9 2 2 1 2 5 8 10 10 5 4 4 3 2 4 3 2 4 3 3 3 3 1 1 0 4 3 5 7 4 3 4 2 2 7 6 8 7 6 9 13 4 8 10 7 6 7 8 7 8 6 8 9 10 14 14 10 14 11 5 5 4 6 5 1 3 4 5 7 4 5 6 12 11 5 4 3 4 4 3 2
19 18 17 16 19 20 18 1 1 5 5 3 6 6 5 5 5 3 4 2 3 4 1 2 1 2 1 0 1 3 2 2 6 4 7 6 6 4 2 2 3 7 10 5 6 4 8 10 5 10 10 9 8 8 9 5 7 4 6 8 14 17 16 12 16 10 6 8 10 8 6 3 2 5 10 10 9 9 8 10 11 7 5 5 5 4 4 4
18 17 16 16 15 16 6 2 3 6 2 2 3 6 3 3 1 5 2 1 2 1 2 1 1 1 1 3 3 2 1 4 1 4 5 5 6 3 0 4 2 2 4 2 1 4 4 7 8 8 9 9 7 8 6 7 5 5 7 5 13 13 9 15 18 14 9 2 12 11 1 6 3 6 8 12 11 10 9 11 10 8 8 8 7 5 4 5
17 16 15 14 12 5 2 3 7 5 5 5 4 8 9 3 1 4 1 2 0 2 1 1 1 2 1 1 3 4 5 1 1 3 8 5 5 3 4 4 3 3 3 1 6 8 8 8 7 8 9 8 8 7 7 6 5 5 6 2 4 6 12 18 13 7 5 10 7 7 4 4 1 1 8 12 11 10 12 11 12 11 9 9 9 7 5 4
16 15 15 13 14 6 4 1 0 4 5 5 11 9 8 4 7 2 2 3 2 0 3 2 4 0 2 0 3 1 3 1 1 7 3 3 0 4 5 4 1 4 5 6 7 4 3 7 10 10 8 9 10 8 10 7 5 8 5 1 0 3 5 13 8 10 8 8 7 10 7 4 1 2 7 8 9 13 13 14 13 13 12 11 10 9 6 4
16 15 12 11 8 2 2 1 6 9 5 8 8 9 4 5 3 2 2 2 0 1 1 1 1 3 1 3 2 1 4 2 2 1 1 2 2 2 1 3 1 2 4 2 5 8 7 7 5 3 8 10 8 11 7 7 10 5 2 2 4 4 2 3 8 3 4 3 11 16 11 6 3 6 8 11 9 12 10 9 9 11 11 11 11 10 8 4
18 13 11 5 1 1 1 5 9 5 6 3 8 5 3 3 2 2 3 1 0 1 1 0 2 2 3 4 2 1 1 0 1 4 3 2 3 0 2 2 1 1 2 4 5 4 3 3 3 2 8 4 7 7 7 7 7 2 0 3 1 1 6 1 5 4 4 3 8 11 10 6 6 5 7 11 1 10 13 14 14 14 13 11 10 9 9 8
20 15 8 3 4 4 3 5 6 2 6 7 6 3 3 3 3 4 1 1 0 0 1 2 3 2 4 3 3 1 3 1 3 2 5 3 2 3 2 3 1 1 2 2 5 4 3 6 2 6 3 8 5 2 4 2 2 1 2 4 5 1 2 1 4 5 5 8 10 13 13 1 6 4 13 16 9 9 11 10 12 12 11 10 10 8 8 9
23 17 10 9 6 2 7 10 6 5 5 6 4 2 3 4 2 3 3 1 1 2 1 4 3 4 4 4 2 3 2 1 2 2 5 2 3 4 4 6 5 5 1 2 1 1 5 2 4 4 5 2 4 6 1 6 2 3 3 4 4 2 2 4 4 4 1 4 12 12 6 1 1 2 4 11 6 8 9 7 8 10 10 10 10 8 9 9
23 18 7 6 9 9 6 2 3 1 5 4 3 4 2 4 2 5 2 1 1 0 3 2 1 1 3 4 2 3 2 2 3 4 6 2 3 2 3 4 4 0 0 3 1 1 0 2 4 4 3 2 3 4 5 2 0 2 3 7 6 5 4 3 5 9 6 3 4 1 7 3 3 2 9 8 6 3 3 5 5 6 8 10 11 9 9 8
25 15 5 2 4 9 14 10 4 0 1 4 4 3 3 2 2 2 2 4 3 3 4 4 3 4 2 1 1 2 4 1 4 2 1 4 2 2 3 4 4 3 1 2 3 0 4 5 4 8 4 4 5 3 5 3 3 2 1 7 5 3 5 3 7 7 6 7 5 3 1 4 1 3 5 5 9 13 14 4 4 5 8 9 9 9 8 7
12 2 5 3 3 5 7 6 4 4 4 5 5 4 1 1 1 1 2 2 2 5 3 7 7 2 1 3 1 1 2 2 2 2 1 3 2 1 3 0 2 6 5 5 2 2 5 1 2 6 3 9 6 4 1 5 1 3 2 2 5 4 4 1 1 2 9 7 1 3 2 2 3 3 7 8 12 13 14 15 16 9 8 10 8 6 4 4
6 7 3 3 3 3 5 4 6 6 4 5 5 3 4 2 2 2 3 4 4 2 3 6 3 2 3 2 2 3 2 2 3 3 2 1 2 5 4 1 8 7 3 3 0 1 0 6 6 1 1 3 3 4 3 3 5 1 1 6 2 2 4 2 3 2 4 6 1 3 1 4 3 4 1 6 10 9 10 9 6 12 10 9 6 5 3 4
6 4 3 5 10 5 5 5 7 2 3 3 2 5 1 0 3 1 3 4 4 4 5 4 1 5 1 3 6 5 2 3 6 1 0 1 2 3 5 3 5 6 7 1 3 2 1 2 6 3 2 3 2 5 2 1 2 4 1 1 3 2 4 2 3 0 4 2 2 3 1 1 1 1 2 3 8 7 9 7 8 6 5 6 5 5 7 9
2 1 4 8 4 6 3 8 5 5 3 3 2 3 3 0 1 5 4 3 0 2 5 1 1 2 2 4 2 2 5 3 3 3 2 3 3 4 2 4 4 8 9 7 5 3 3 1 4 6 2 1 4 3 4 2 4 1 2 2 0 3 2 3 5 3 7 5 5 1 3 2 2 0 1 7 6 6 9 9 9 6 6 4 5 5 6 8
2 3 4 4 5 2 7 8 4 3 2 1 4 2 3 2 4 8 6 5 3 3 0 3 4 2 3 2 3 2 6 8 5 2 4 3 2 1 7 8 4 5 6 4 2 1 2 1 1 6 6 1 1 0 4 4 3 0 0 1 1 1 3 1 1 3 6 6 4 8 1 3 3 3 6 8 5 6 8 11 9 7 7 8 7 6 6 9
2 2 5 5 3 7 8 5 1 0 1 3 2 3 2 1 3 5 10 8 3 1 2 3 3 5 2 5 7 4 2 4 5 4 2 2 5 3 6 4 4 6 3 6 7 5 2 2 1 4 2 1 2 4 5 6 6 3 3 3 4 0 1 0 5 4 3 7 6 7 2 1 1 2 6 7 4 3 5 11 9 9 8 7 9 10 9 9
1 1 4 3 2 5 8 2 1 1 1 2 0 1 2 3 2 6 7 6 5 2 3 2 2 3 5 3 2 5 3 2 3 4 2 3 1 2 4 6 6 3 4 1 3 1 1 1 1 2 1 3 7 5 4 4 2 3 4 1 3 2 2 1 2 2 3 4 7 2 8 1 1 2 6 7 5 4 3 7 10 8 7 8 8 9 9 10
2 4 8 9 9 3 5 0 0 1 2 4 2 1 1 1 2 4 4 6 4 5 3 2 1 3 3 4 3 4 7 2 1 2 0 1 2 2 5 8 7 8 3 4 2 3 1 2 5 5 6 7 5 3 5 3 1 2 2 1 3 1 2 5 5 5 5 5 7 3 5 3 1 3 7 11 8 7 3 4 7 8 8 8 8 8 8 9
2 2 7 6 1 6 5 3 4 2 3 3 2 2 2 2 4 4 3 4 3 3 3 2 3 2 2 4 3 4 5 2 1 2 2 1 2 4 6 7 7 3 4 1 1 5 2 2 3 2 4 7 7 3 7 7 5 1 1 2 1 1 9 5 7 4 6 2 5 10 9 6 4 2 5 8 11 11 7 5 7 9 7 8 8 7 7 7
3 3 4 7 4 5 2 3 4 2 3 1 2 3 1 3 3 2 3 4 3 3 4 3 2 2 2 1 2 4 6 1 0 3 2 0 1 1 7 6 5 1 1 2 4 2 2 1 3 3 2 3 2 3 3 4 3 5 1 4 5 2 4 5 4 1 4 2 7 6 4 5 4 4 4 4 8 10 8 6 6 8 9 8 7 7 8 8
3 3 6 5 5 2 1 1 1 4 3 4 5 2 1 2 2 5 8 3 4 4 2 2 5 3 4 3 3 4 5 6 3 1 4 3 2 2 2 5 2 1 5 6 5 2 1 1 4 2 1 3 2 3 6 2 2 3 4 4 3 4 5 7 5 5 7 5 4 2 16 12 8 7 7 8 9 11 10 7 8 8 9 8 7 7 7 7
0 3 2 6 6 5 1 4 3 5 3 1 2 2 7 4 1 3 9 1 3 4 2 5 4 2 3 5 2 2 4 4 8 4 5 4 4 1 5 2 4 3 6 2 6 3 2 4 5 3 1 2 5 5 4 1 1 3 7 4 7 4 3 4 8 5 7 12 4 2 20 19 12 11 12 10 10 11 11 9 8 8 9 10 9 9 11 10
3 2 1 1 2 2 5 6 2 6 4 4 2 3 5 7 7 4 4 7 5 9 7 5 9 6 3 3 3 3 2 2 4 4 6 6 3 9 3 4 4 9 7 2 4 4 2 2 5 2 7 6 2 4 4 2 4 3 3 8 7 7 7 5 2 9 6 8 11 12 14 20 14 16 15 14 12 12 11 10 9 10 10 10 11 11 10 10
1 1 1 3 1 2 1 6 4 7 7 6 2 5 6 8 7 3 2 4 5 5 7 4 6 9 9 7 5 1 2 2 3 2 3 5 3 4 5 6 6 8 4 3 4 1 2 1 4 3 5 7 7 8 7 4 4 4 6 5 5 8 5 6 6 6 7 7 15 14 4 10 12 13 12 11 11 12 10 8 10 11 11 10 12 12 12 11
4 3 5 4 1 3 5 6 2 7 7 4 3 4 1 3 4 6 3 4 3 4 5 8 10 5 10 11 8 6 4 3 3 3 3 5 7 6 2 1 3 6 7 4 2 4 4 2 7 6 4 6 8 8 8 7 5 4 5 5 6 8 9 7 6 9 16 16 15 15 12 8 2 8 10 9 11 9 10 10 8 7 9 11 12 13 12 11
3 1 0 2 6 5 6 3 3 6 3 4 4 3 3 3 2 2 2 1 4 3 2 5 5 9 9 10 9 7 5 4 5 4 2 3 2 2 1 3 1 2 5 5 3 4 6 2 2 3 4 4 6 11 8 8 5 3 2 5 6 5 7 4 7 4 12 14 15 14 10 7 5 9 11 12 13 12 11 10 9 8 10 11 12 12 13 12
1 2 0 2 0 1 5 4 2 5 4 1 1 1 2 3 4 5 2 4 4 7 4 6 4 7 6 10 7 6 6 3 5 4 4 1 1 3 2 2 1 2 1 4 1 3 2 1 3 4 5 4 6 8 8 5 5 4 5 4 0 2 4 4 3 9 17 19 16 13 10 11 13 11 14 12 13 11 12 11 12 11 9 11 12 12 11 12
Wind_Direction
345 344 342 340 338 337 335 334 333 331 328 328 326 324 321 322 320 321 323 324 321 321 322 325 325 325 325 325 328 327 331 324 314 249 205 241 192 215 178 210 177 199 209 141 161 139 175 192 215 208 198 172 216 224 161 189 182 109 92 128 44 179 121 223 177 182 120 141 153 165 181 146 143 163 206 188 59 76 97 116 107 109 99 114 125 134 141 141
342 341 341 340 338 336 334 332 331 329 327 326 324 322 320 320 319 319 321 320 321 320 321 323 326 323 323 323 327 329 328 299 276 249 231 221 200 201 216 235 214 193 179 178 173 184 164 195 208 183 189 216 192 216 159 258 214 104 129 76 199 179 174 161 129 147 139 147 139 151 178 189 153 151 210 124 119 128 117 122 132 113 110 116 130 140 143 147
342 341 340 339 337 335 332 331 328 328 327 324 320 320 319 317 318 318 319 318 319 321 321 322 322 322 321 319 325 334 338 299 251 259 258 232 214 201 213 232 216 177 175 174 191 185 187 188 189 176 201 240 207 176 195 247 237 219 115 77 259 222 147 152 127 153 6 142 136 146 180 166 124 19 183 134 135 137 140 144 135 131 134 141 141 145 148 150
342 341 340 338 335 333 331 329 327 326 325 322 319 317 316 316 316 316 315 317 317 321 322 320 319 321 318 316 321 333 313 276 278 247 233 162 188 202 213 228 175 173 170 261 190 199 238 268 225 190 180 216 236 151 188 211 165 258 88 164 242 157 351 92 112 188 105 143 135 144 175 142 141 188 199 133 109 137 150 157 147 146 146 146 150 149 152 149
340 339 337 335 333 331 329 328 327 326 324 321 318 315 314 315 315 314 314 315 317 321 319 319 319 317 315 312 323 318 342 38 167 246 287 297 187 192 196 202 181 167 175 183 140 256 262 257 257 224 222 222 215 151 215 165 221 131 215 201 199 138 224 161 166 139 134 146 135 185 162 174 149 108 4 83 137 162 166 155 145 145 148 148 151 152 150 150
338 337 335 333 332 330 328 327 325 324 322 320 317 315 313 313 312 312 313 313 318 317 317 317 318 316 310 311 302 259 74 105 269 266 36 5 180 179 177 186 178 164 163 202 184 177 209 259 231 264 216 213 174 185 169 169 188 129 254 236 215 207 197 155 171 165 137 157 165 180 157 124 107 71 55 39 111 290 149 145 143 145 148 149 148 150 151 152
338 336 334 332 331 329 327 325 324 322 321 319 317 315 314 312 310 310 310 314 311 313 312 315 315 314 310 300 260 223 100 273 290 245 90 101 161 161 167 172 163 144 158 174 210 190 203 221 228 230 240 215 223 208 173 169 206 159 215 195 197 216 225 176 172 153 163 145 211 169 131 110 107 118 163 169 271 325 188 141 139 143 146 152 151 156 154 154
338 336 334 332 330 329 328 325 323 321 319 316 315 314 312 309 309 309 308 309 310 308 311 310 312 308 322 305 158 5 76 255 242 128 129 113 133 148 148 139 150 151 169 197 181 203 173 214 223 233 245 189 193 181 172 162 185 216 206 178 154 166 173 182 157 136 159 152 262 138 96 105 142 147 141 132 131 292 152 139 138 145 151 156 157 155 156 156
336 334 333 331 330 328 327 325 322 319 318 317 314 313 311 311 309 308 306 306 307 307 306 307 306 304 308 300 144 9 267 232 201 149 138 127 138 135 136 156 165 161 191 200 215 200 163 230 225 225 229 206 248 272 174 142 235 227 184 170 163 164 153 176 145 154 134 75 274 97 95 117 133 120 68 156 168 210 150 139 143 143 152 156 149 151 156 157
335 334 331 330 328 326 326 324 322 319 317 314 313 310 311 309 308 306 304 304 303 305 303 297 286 292 329 240 107 59 259 153 111 137 132 132 127 137 163 149 164 165 175 211 208 212 209 217 215 264 255 276 217 216 186 171 220 175 154 160 172 151 152 168 163 120 75 81 279 111 119 136 181 135 141 231 182 122 152 142 144 147 152 151 146 152 157 157
335 332 331 329 327 326 324 323 321 318 315 314 313 311 308 307 306 304 302 301 301 299 297 283 265 179 215 247 117 212 243 118 141 139 144 138 139 151 186 167 176 168 190 193 211 211 226 252 262 275 288 222 341 261 173 215 293 151 138 126 134 119 127 162 135 114 123 136 269 122 118 148 192 102 153 177 192 155 158 143 147 152 154 150 149 154 155 155
333 331 330 329 329 326 324 322 320 318 316 315 312 311 307 305 304 302 299 301 298 292 283 274 198 196 283 308 196 224 289 59 153 158 149 148 166 184 176 170 178 179 178 186 218 219 216 224 234 249 250 344 290 339 210 4 320 144 132 105 106 114 94 55 95 52 52 168 211 167 86 37 2 109 143 162 146 96 154 148 150 155 153 148 150 155 162 158
331 331 330 329 327 326 323 321 320 318 315 314 313 308 305 303 301 299 298 298 287 275 259 249 158 234 233 111 232 240 265 304 144 162 158 165 158 172 185 172 190 189 190 204 220 238 244 246 253 253 246 286 264 246 267 290 235 147 141 123 116 106 118 51 84 106 69 186 204 196 100 359 347 34 0 142 147 168 151 153 154 153 155 151 155 166 173 169
331 330 330 328 326 325 323 320 318 318 316 315 308 306 304 301 297 295 290 280 280 273 254 204 178 192 200 245 263 216 227 231 181 205 190 165 149 193 199 183 190 208 219 249 270 270 281 273 242 238 211 245 270 279 331 323 184 177 132 101 131 130 181 36 77 134 121 234 228 33 124 154 211 315 328 161 152 165 155 155 157 157 156 158 165 175 179 179
330 331 330 328 326 325 323 319 317 316 316 314 312 306 302 297 294 289 281 274 258 266 154 138 165 172 81 266 265 265 225 169 188 212 196 154 181 174 194 170 205 203 214 226 242 271 257 279 262 213 270 265 325 25 327 357 343 134 110 178 279 153 154 77 65 149 143 205 294 11 72 122 192 224 318 328 161 158 159 157 159 160 157 163 173 180 178 181
327 328 328 328 326 325 320 320 317 314 316 314 306 303 299 293 287 280 269 247 241 130 140 123 202 190 359 288 264 318 313 150 203 204 200 163 174 185 187 177 193 211 216 257 245 268 266 282 142 202 217 341 318 335 347 15 334 141 132 158 166 152 138 85 218 198 119 128 130 280 111 123 247 212 166 231 194 161 165 159 161 162 160 166 176 178 176 173
328 326 323 325 327 324 322 319 315 314 312 309 309 299 291 280 278 271 259 237 226 183 193 119 128 189 358 252 296 318 209 204 169 178 184 185 176 194 157 161 189 215 224 251 254 238 287 317 294 284 70 164 169 85 55 351 303 307 116 138 177 145 144 187 114 239 213 149 166 160 195 206 164 172 170 208 165 166 188 166 164 160 163 170 173 178 168 162
328 327 326 324 325 325 321 316 313 313 313 311 305 291 289 280 280 305 260 185 178 170 232 275 239 316 286 330 277 237 193 292 141 204 179 193 172 191 153 177 195 195 207 242 258 256 306 321 56 188 353 253 115 97 132 199 187 199 120 110 155 151 169 165 167 194 172 177 140 165 182 155 160 161 170 173 87 130 182 174 162 159 165 173 170 179 163 151
329 327 325 325 323 324 322 318 315 317 323 316 296 277 251 261 270 173 108 170 125 39 16 213 120 169 125 212 273 303 259 211 145 168 214 193 159 168 158 122 130 132 160 123 298 173 318 36 16 19 251 224 232 188 204 232 143 75 75 149 146 151 202 176 187 147 173 154 173 167 159 153 157 166 165 150 165 147 197 127 142 158 167 169 171 172 164 149
328 324 326 326 324 321 320 319 315 321 343 334 1 18 90 27 44 358 7 267 220 206 235 184 206 273 309 278 251 248 258 221 151 211 184 188 121 152 137 147 90 104 113 178 253 241 150 131 178 208 221 224 237 211 212 241 281 306 304 116 124 133 142 225 203 166 179 139 190 171 147 153 164 167 174 165 154 160 177 139 140 146 157 151 166 165 164 148
324 325 326 326 325 319 316 317 316 334 344 337 296 31 94 255 20 339 228 220 217 234 238 237 195 214 236 298 297 311 30 248 154 187 223 112 104 146 174 147 122 192 184 179 164 264 127 180 233 221 220 221 234 239 235 247 251 255 270 123 168 161 183 191 191 170 199 168 154 152 149 166 163 161 157 150 153 175 179 155 145 143 141 143 154 166 159 156
324 324 326 326 323 319 312 314 327 329 329 282 33 47 259 223 197 215 302 321 281 227 229 243 235 259 258 256 255 234 254 175 171 210 246 122 156 155 230 142 150 194 237 187 155 93 179 208 233 227 227 230 238 244 251 233 243 243 229 183 172 209 179 176 189 168 192 153 153 151 151 144 101 96 67 72 34 351 331 177 155 145 146 145 153 164 160 144
322 324 325 327 323 316 313 309 319 320 256 136 83 200 243 233 333 287 58 285 282 242 226 234 248 246 266 274 267 213 184 171 184 220 223 123 155 173 170 126 166 200 206 193 168 150 191 255 238 233 226 224 245 243 248 258 240 243 248 212 182 168 139 190 217 180 186 155 158 155 109 49 33 60 76 113 109 89 346 320 142 143 151 159 165 165 158 153
322 325 326 325 323 318 307 317 297 159 200 221 226 226 252 330 313 324 59 241 296 308 223 214 199 232 242 270 276 105 142 175 141 200 207 134 164 159 153 176 178 185 204 201 180 174 207 225 216 220 225 209 229 239 238 236 252 240 235 211 167 159 179 170 180 149 81 28 56 85 60 39 19 27 111 155 164 153 151 184 299 321 245 153 18 170 140 159
325 327 326 326 323 319 310 310 100 224 188 172 241 247 248 258 270 231 87 331 338 275 206 244 171 232 242 217 263 73 162 151 212 178 181 147 138 126 213 167 135 205 208 204 188 196 242 248 211 210 230 225 223 249 235 202 232 256 242 209 175 167 180 172 136 135 58 23 130 158 83 240 204 185 183 165 153 171 184 175 222 227 214 202 198 215 157 158
326 325 328 327 323 324 306 322 331 342 310 255 242 280 274 249 220 161 94 77 330 268 58 252 32 270 27 274 70 107 110 260 209 192 171 178 162 162 170 224 151 200 220 187 191 195 221 239 192 208 218 229 225 228 237 179 211 216 255 198 168 177 179 149 155 129 126 154 207 201 121 197 139 215 183 169 171 172 186 194 205 203 208 216 212 206 170 189
322 325 327 327 326 331 355 311 311 304 341 302 283 311 294 221 92 68 61 358 17 270 157 282 80 251 284 199 156 83 45 271 278 136 171 175 185 124 122 245 281 208 191 158 157 248 215 227 212 208 216 224 232 235 235 185 179 236 245 186 162 182 179 160 160 170 175 81 165 175 112 138 181 227 176 167 167 170 188 198 199 197 195 210 217 206 196 184
323 324 325 323 318 334 266 323 344 336 256 252 314 316 322 319 43 54 82 75 8 325 127 229 227 332 301 272 137 158 194 130 70 227 178 188 120 142 183 218 192 237 295 279 200 255 214 220 196 194 207 220 227 219 235 172 183 222 259 92 181 166 169 160 161 170 133 117 152 204 154 68 256 191 160 166 165 184 191 193 193 193 195 198 213 218 194 200
323 324 323 318 319 306 218 206 68 253 244 304 315 313 318 16 75 95 119 100 243 234 260 117 283 108 284 191 227 283 333 354 147 225 186 136 79 129 203 231 200 256 249 197 221 269 270 213 209 177 176 214 224 227 228 178 214 254 213 214 57 98 106 154 156 149 150 116 181 202 188 117 252 177 156 186 183 188 194 194 192 189 185 191 201 211 200 208
321 321 321 316 317 145 166 203 229 241 290 302 303 302 326 43 33 45 4 25 97 266 218 263 63 213 149 131 283 121 251 299 203 55 82 152 239 25 202 177 174 323 307 236 207 226 241 262 191 162 192 207 219 235 224 195 227 238 110 98 68 48 46 47 159 149 96 153 197 194 193 152 178 203 190 181 204 189 181 187 192 186 183 188 197 198 190 170
319 317 313 314 220 302 314 304 257 228 236 294 317 330 50 36 96 106 73 226 200 256 40 18 242 61 137 158 243 255 189 262 306 137 156 237 15 38 353 12 312 327 341 327 309 279 281 290 285 223 181 202 188 233 244 204 220 106 61 114 105 270 98 95 330 122 111 220 205 189 187 177 144 226 234 225 207 189 185 187 185 185 183 183 190 190 175 158
316 314 293 196 257 341 187 239 250 344 341 335 341 32 62 37 9 94 15 221 78 287 166 243 232 148 187 207 167 199 178 101 220 109 143 174 149 177 196 183 173 321 323 292 280 323 281 253 238 275 194 145 185 131 310 5 349 73 92 69 123 247 94 223 20 357 182 199 189 176 155 219 226 218 207 196 208 186 193 184 181 177 171 174 187 176 169 176
316 312 291 227 214 231 241 247 305 320 329 351 27 57 60 87 29 277 304 276 299 157 272 194 198 185 182 146 239 225 177 194 246 157 156 171 140 239 235 189 178 146 217 262 296 350 277 277 221 272 291 193 118 159 188 222 343 91 156 138 118 150 90 159 180 208 226 312 164 162 125 127 278 330 357 182 204 185 176 173 172 170 170 168 170 153 177 178
311 315 319 188 192 218 245 237 236 4 2 13 37 35 55 59 293 245 271 288 241 277 131 285 335 211 143 156 228 180 82 284 156 170 158 142 77 200 275 263 201 126 84 332 341 223 334 317 293 182 228 241 121 147 172 161 329 241 176 144 169 146 150 182 174 186 190 185 130 77 143 259 143 234 345 37 23 13 114 143 156 164 163 159 156 156 169 174
310 299 213 212 232 243 239 247 249 74 98 45 48 84 84 9 241 301 310 337 315 336 349 346 178 165 261 197 234 201 143 238 214 124 35 145 237 167 197 260 246 134 164 38 268 153 204 200 245 206 203 201 181 178 136 92 357 260 190 98 80 254 142 150 199 148 143 126 99 354 75 318 272 267 309 41 53 38 22 16 156 157 154 146 139 145 168 172
323 318 165 245 184 255 191 208 147 147 91 48 64 39 46 214 325 330 334 281 314 339 339 9 26 68 185 245 320 306 248 139 244 91 282 180 154 31 254 336 290 176 155 157 231 353 355 314 291 324 254 183 196 161 169 123 154 285 21 209 201 182 113 53 329 72 108 67 26 119 72 324 273 318 14 17 57 40 52 33 358 1 80 91 91 95 104 131
2 332 4 293 260 207 188 155 138 115 81 82 77 347 220 298 209 309 298 357 315 340 45 40 341 39 13 321 328 272 167 41 271 130 233 63 3 358 337 125 46 44 55 144 325 177 109 263 298 351 320 261 162 112 107 116 147 125 323 250 266 167 119 132 196 334 73 115 176 84 165 165 164 186 338 35 65 76 77 86 57 351 340 67 59 67 48 61
326 327 262 264 258 239 157 143 111 71 80 60 25 268 224 148 294 36 330 358 351 22 60 38 281 85 21 49 356 341 23 95 337 64 231 108 111 339 344 325 25 40 9 52 127 321 111 5 302 289 180 309 351 74 37 354 95 139 200 217 90 311 251 307 99 166 94 65 114 30 6 104 357 232 89 82 106 112 114 125 112 106 10 22 47 57 57 72
275 17 329 262 255 237 152 124 81 83 55 31 301 335 284 269 292 355 331 327 209 73 50 341 81 333 97 43 272 4 49 73 16 31 42 19 77 318 16 312 347 359 19 28 56 320 57 126 300 317 11 260 22 68 191 273 337 68 53 23 29 116 176 155 212 163 114 152 115 115 44 244 274 163 352 115 121 126 117 103 95 100 96 55 44 36 54 77
352 36 296 263 280 152 116 118 86 54 77 146 249 230 240 347 337 323 342 21 7 66 335 25 24 2 10 51 36 48 35 47 18 9 69 313 113 191 34 350 10 347 3 58 113 57 18 106 265 277 307 21 302 53 184 151 111 91 341 332 357 332 213 141 345 120 148 144 156 137 160 276 247 198 132 127 125 130 128 117 117 102 82 68 55 53 69 79
313 116 267 271 254 132 112 99 71 351 208 261 220 246 359 346 334 329 347 2 18 80 103 51 40 43 351 24 11 346 78 37 26 35 54 30 39 331 15 2 347 9 349 20 49 8 44 19 245 302 6 75 238 226 176 148 144 150 158 217 175 323 341 205 271 357 83 119 156 154 162 320 292 165 126 122 91 79 122 117 106 102 92 74 68 61 60 70
63 1 260 264 19 101 101 104 283 165 175 275 275 322 343 2 7 350 358 346 56 354 6 70 21 73 13 26 103 31 62 40 38 55 6 116 329 106 303 14 48 23 62 29 289 295 156 179 75 334 240 270 260 256 215 146 123 139 149 233 145 151 123 112 150 280 52 55 70 65 108 202 293 125 95 89 68 63 321 99 102 93 83 78 76 75 69 71
37 229 262 286 280 132 79 292 285 225 190 231 187 221 334 351 2 354 16 357 9 1 22 31 330 62 8 46 357 58 42 25 13 135 226 349 68 323 304 37 26 34 82 342 1 308 356 50 2 312 313 298 311 351 30 54 94 326 348 56 60 298 195 183 178 175 116 132 102 72 67 148 339 89 134 136 152 107 30 37 101 96 86 82 80 74 72 74
241 275 312 295 102 121 99 226 302 283 243 319 25 121 44 56 27 357 15 339 13 342 360 16 340 81 81 25 28 45 25 50 338 56 358 7 56 283 34 45 41 37 44 244 110 304 37 321 107 2 0 337 342 357 2 342 39 83 290 316 267 70 103 122 97 46 86 272 166 133 151 180 164 123 132 138 128 121 134 149 112 103 92 86 81 78 77 76
306 263 243 289 359 71 160 189 176 109 31 84 83 57 19 18 343 33 41 326 339 34 0 5 2 53 33 329 51 39 30 137 234 330 66 17 151 14 21 42 83 50 4 173 232 276 72 313 75 79 99 71 17 27 335 318 287 273 23 354 20 64 165 94 100 18 94 226 116 109 72 56 82 114 112 116 134 128 132 130 105 106 109 101 90 84 81 75
17 28 305 337 1 23 316 225 110 111 75 30 21 320 22 162 327 13 27 331 17 12 77 320 7 20 59 49 51 30 14 19 40 334 29 325 317 354 318 11 29 94 325 326 326 116 96 31 88 134 146 175 206 226 251 241 336 27 305 28 34 49 58 97 104 111 149 164 82 179 137 142 139 154 157 161 150 134 132 143 132 118 107 100 97 89 80 74
93 71 355 340 327 16 331 358 36 47 59 68 71 307 16 31 92 49 8 31 336 4 325 44 353 28 51 65 54 93 344 20 8 47 27 20 310 289 297 68 4 342 340 357 356 72 60 48 7 351 264 217 202 206 290 279 85 10 25 27 25 4 95 112 132 168 157 99 31 177 144 141 163 169 172 165 154 147 144 151 140 128 123 116 107 96 84 75
51 272 100 169 157 287 17 340 51 65 41 65 58 6 69 60 43 30 357 12 354 40 33 329 25 26 71 108 106 54 347 79 41 10 332 6 338 358 357 350 63 5 35 16 18 95 114 63 313 345 322 345 312 353 340 5 57 64 29 53 49 36 47 85 76 135 141 130 158 172 161 143 165 171 171 167 155 150 149 148 145 136 127 123 115 101 89 81
84 286 280 339 66 287 279 312 41 77 57 43 55 38 50 58 47 35 42 353 11 22 35 20 357 55 43 48 84 102 18 74 346 358 29 334 8 5 8 343 351 1 20 22 16 72 79 45 334 335 312 350 347 6 349 42 29 30 38 23 42 40 68 135 142 152 126 125 137 140 146 137 152 164 162 158 149 146 143 139 137 138 140 133 116 105 95 83
353 23 321 350 16 308 334 7 32 66 63 30 75 345 61 63 45 346 11 48 22 1 10 34 358 16 66 51 51 63 25 68 53 43 357 24 345 29 335 154 271 335 15 17 15 342 100 316 20 349 26 353 329 356 359 349 37 41 13 18 29 57 58 81 95 76 86 97 115 125 130 121 105 141 144 142 136 134 138 141 138 129 116 106 101 98 91 82
282 221 205 326 350 334 349 20 67 89 65 354 67 18 59 46 37 334 65 59 86 349 24 41 25 36 29 45 40 28 355 16 16 4 349 68 6 288 7 300 43 43 0 1 17 331 56 314 67 41 50 340 345 360 348 355 27 95 360 9 23 58 77 108 107 153 117 131 128 121 123 136 157 140 129 130 137 141 134 126 118 110 106 102 95 93 93 85
308 259 199 151 203 333 12 321 346 57 41 254 149 201 104 61 75 43 37 7 47 39 66 66 56 73 18 32 17 332 309 343 339 317 311 259 236 268 243 271 318 105 28 354 333 49 352 53 42 53 44 291 313 346 347 5 37 20 343 318 39 76 129 90 71 136 135 135 133 148 170 156 153 146 128 128 127 124 122 122 112 102 100 102 101 96 91 91